Regional Weather Roundup
Issued by NWS State College, PA

Home | Current Version | Previous Version | Text Only | Print | Product List | Glossary On
Versions: 1 2 3 4 5 6 7 8 9 10 11 12 13 14 15 16 17 18 19 20 21 22 23 24 25 26 27 28 29 30 31 32 33 34 35 36 37 38 39 40 41 42 43 44 45 46 47 48 49 50
390
ASUS41 KCTP 230203
RWRCTP

REGIONAL WEATHER ROUNDUP
NATIONAL WEATHER SERVICE STATE COLLEGE PA
1000 PM EDT SUN OCT 22 2017

Note: "fair" indicates few or no clouds below 12,000 feet with no
significant weather and/or obstructions to visibility.

* = STATION THAT DOES NOT REPORT PRECIPITATION /E.G. RAIN...SNOW...ETC/
    THUNDER OR FOG.

PAZ002>004-007>009-013>016-020>023-029>032-230300-
WESTERN PENNSYLVANIA

CITY           SKY/WX    TMP DP  RH WIND       PRES   REMARKS
ERIE           CLOUDY    68  51  54 S8        30.13S
MEADVILLE      PTCLDY    65  51  60 VRB5      30.18S
FRANKLIN*      PTCLDY    64  51  62 SE13      30.21R
NEW CASTLE     FAIR      60  53  77 E3        30.18S
BEAVER COUNTY  NOT AVBL
BUTLER*        CLOUDY    64  52  64 E8        30.19F
PITTSBURGH INT CLOUDY    67  52  58 SE7       30.17F
PITTSBURGH     CLOUDY    67  49  52 SE9G16    30.18S
INDIANA*       CLEAR     66  54  63 S13G23    30.25S
LATROBE        CLEAR     66  54  63 S9        30.22R
WASHINGTON CO* CLOUDY    62  51  67 S5        30.20
$$

PAZ004>006-010>012-017>019-024>028-033>037-041-042-045-046-049>053-230300-
CENTRAL PENNSYLVANIA

CITY           SKY/WX    TMP DP  RH WIND       PRES   REMARKS
BRADFORD       CLOUDY    62  52  69 S8        30.26S
DUBOIS         PTCLDY    61  51  70 SE8       30.25S
CLEARFIELD     PTCLDY    63  53  70 VRB3      30.28S
JOHNSTOWN      CLOUDY    61  53  75 SE13G21   30.27S
ALTOONA        CLOUDY    64  54  69 VRB5      30.30S
STATE COLLEGE  NOT AVBL
WILLIAMSPORT   PTCLDY    66  46  48 E8        30.29S
SELINSGROVE    CLOUDY    52  51  97 CALM      30.32S
FT INDIANTOWN  CLOUDY    53  49  86 CALM      30.35R
CAPITAL CITY   PTCLDY    60  50  69 SE6       30.33S
HARRISBURG     MOCLDY    57  51  80 E3        30.33S
YORK           PTCLDY    50  48  93 CALM      30.34R
$$

PAZ038>040-043-044-047-048-054-055-060>062-067>071-230300-
EASTERN PENNSYLVANIA

CITY           SKY/WX    TMP DP  RH WIND       PRES   REMARKS
SCRANTON       CLOUDY    63  44  50 CALM      30.34R
MOUNT POCONO   CLOUDY    56  45  66 S7        30.38R
ALLENTOWN      CLOUDY    59  46  62 CALM      30.36R
QUAKERTOWN*    PTCLDY    50  48  93 CALM      30.38R
READING        PTCLDY    55  49  80 NW3       30.34S
LANCASTER      CLOUDY    54  46  74 E6        30.35R
COATESVILLE    CLEAR     59  54  82 SE3       30.37S
POTTSTOWN      CLEAR     54  48  80 CALM      30.38R
BLUE BELL      PTCLDY    55  46  71 CALM      30.39R
DOYLESTOWN     CLOUDY    56  48  74 SE3       30.37R
WILLOW GROVE   NOT AVBL
NORTH PHILA    PTCLDY    61  51  70 CALM      30.39R
PHILADELPHIA   MOCLDY    60  53  77 SE3       30.37R
$$




USA.gov is the U.S. government's official web portal to all federal, state and local government web resources and services.